2024-169F

Last updated on Mon Oct 21 2024 00:02:04 GMT+0000 (Coordinated Universal Time)

1 61194U 24169F 24294.54234548 .00027267 00000+0 16541-2 0 9991 2 61194 97.5937 19.7411 0012540 204.7959 155.2669 15.10437382 4589
UTC large
Height (km)
Speed (km/s)
/
Latitude / Longitude
Inclination (degrees)
Orbital Period (minutes)
Azimuth
Elevation
Range (km)
Doppler Factor

Next 0 passes for location: London (51.5072 / 0.1276)

Sorry there are no passes over London.